Location: Bannatyne
(13.0833°N, 59.5333°W)
Time: 16:09:37
(UTC+00:00)

deb Ariane - Pass Details

Date: 18 October 2019
Orbit: 332 x 24335 km, 7.5° (Epoch: 13 November)

Event Time Altitude Azimuth Distance (km) Brightness Sun altitude
Rises 23:06:41 0° 255° (WSW) 2,324 7.5 -22.3°
Reaches altitude 10° 23:08:02 10° 248° (WSW) 1,705 6.3 -22.7°
Maximum altitude 23:11:16 49° 170° (S) 1,094 4.2 -23.5°
Enters shadow 23:13:21 36° 122° (ESE) 1,750 4.9 -24.0°
